Weather History for KPOV - February, 2014

Change the Weather History Date:

Thursday, February 27, 2014

  Actual Average (KCAK) Record (KCAK)
Temperature  
Mean Temperature 7 °F 32 °F  
Max Temperature 17 °F 40 °F 65 °F (1996)
Min Temperature -3 °F 24 °F -9 °F (1963)
Degree Days  
Heating Degree Days 58 33  
Month to date heating degree days 975  
Since 1 July heating degree days 4511  
Cooling Degree Days 0 0  
Month to date cooling degree days 0  
Year to date cooling degree days 0  
Moisture  
Dew Point 0 °F    
Average Humidity 64    
Maximum Humidity 84    
Minimum Humidity 39    
Precipitation  
Precipitation 0.00 in 0.09 in - ()
Month to date precipitation 2.22  
Year to date precipitation 4.83  
Snow  
Snow 0.00 in 0.40 in - ()
Month to date snowfall 10.1  
Since 1 July snowfall 36.1  
Snow Depth -    
Sea Level Pressure  
Sea Level Pressure 29.81 in    
Wind  
Wind Speed 11 mph (West)    
Max Wind Speed 24 mph    
Max Gust Speed 37 mph    
Visibility 7 miles    
Events Snow    
T = Trace of Precipitation, MM = Missing Value Source: NWS Daily Summary

Daily Weather History Graph

Daily Weather History Graph

Search for Another Location

Airport or City:

Trip Planner

Search our weather history database for the weather conditions in past years. The results will help you decide how hot, cold, wet, or windy it might be!

Date:

Astronomy

Feb. 27, 2014 Rise Set
Actual Time 7:02 AM EST 6:13 PM EST
Civil Twilight 6:34 AM EST 6:41 PM EST
Nautical Twilight 6:02 AM EST 7:13 PM EST
Astronomical Twilight 5:30 AM EST 7:45 PM EST
Moon 5:34 AM EST (2/27) 4:37 PM EST (2/27)
Length of Visible Light 12h 06m
Length of Day
11h 11m
Waning Crescent, 4% of the Moon is Illuminated
Feb 27
Waning Crescent
Mar 1
New
Mar 8
First Quarter
Mar 16
Full
Mar 23
Last Quarter

Hourly Weather History & Observations

Time (EST) Temp. Windchill Dew Point Humidity Pressure Visibility Wind Dir Wind Speed Gust Speed Precip Events Conditions
12:13 AM 15.6 °F 4.0 °F 2.3 °F 56% 29.68 in 10.0 mi SW 9.2 mph - N/A   Mostly Cloudy
12:34 AM 15.6 °F 3.2 °F 1.6 °F 54% 29.67 in 10.0 mi SW 10.4 mph 23.0 mph N/A   Overcast
12:53 AM 15.6 °F 4.0 °F 1.2 °F 53% 29.66 in 10.0 mi WSW 9.2 mph 17.3 mph N/A   Overcast
1:13 AM 15.6 °F 4.0 °F 1.2 °F 53% 29.65 in 10.0 mi SW 9.2 mph 18.4 mph N/A   Overcast
1:33 AM 15.6 °F 2.5 °F 0.7 °F 52% 29.65 in 10.0 mi WSW 11.5 mph 17.3 mph N/A   Mostly Cloudy
1:53 AM 15.4 °F 1.6 °F 0.3 °F 51% 29.64 in 10.0 mi WSW 12.7 mph 25.3 mph N/A   Scattered Clouds
2:13 AM 15.1 °F 1.1 °F -0.0 °F 51% 29.63 in 10.0 mi WSW 12.7 mph 18.4 mph N/A   Mostly Cloudy
2:33 AM 15.3 °F 2.0 °F -0.4 °F 50% 29.62 in 10.0 mi WSW 11.5 mph 25.3 mph N/A   Overcast
2:54 AM 14.9 °F 1.6 °F -0.0 °F 52% 29.61 in 10.0 mi WSW 11.5 mph 19.6 mph N/A   Overcast
3:13 AM 14.9 °F 1.6 °F -0.0 °F 52% 29.60 in 10.0 mi SW 11.5 mph 17.3 mph N/A   Overcast
3:33 AM 14.9 °F 2.3 °F 0.5 °F 53% 29.59 in 10.0 mi WSW 10.4 mph 17.3 mph N/A   Overcast
3:53 AM 14.9 °F 3.1 °F 0.5 °F 53% 29.58 in 10.0 mi WSW 9.2 mph 17.3 mph N/A   Overcast
4:13 AM 14.9 °F 3.1 °F 1.2 °F 55% 29.57 in 10.0 mi WSW 9.2 mph 18.4 mph N/A   Overcast
4:33 AM 14.9 °F 2.3 °F 2.1 °F 57% 29.56 in 10.0 mi WSW 10.4 mph - N/A   Overcast
4:53 AM 14.9 °F 3.1 °F 2.7 °F 58% 29.56 in 10.0 mi WSW 9.2 mph 19.6 mph N/A   Overcast
5:13 AM 14.9 °F 1.6 °F 3.2 °F 60% 29.56 in 10.0 mi WSW 11.5 mph 20.7 mph N/A   Overcast
5:34 AM 14.9 °F 1.6 °F 4.8 °F 64% 29.55 in 10.0 mi WSW 11.5 mph 18.4 mph N/A   Overcast
5:53 AM 14.9 °F 3.1 °F 5.2 °F 65% 29.55 in 10.0 mi WSW 9.2 mph 16.1 mph N/A   Overcast
6:13 AM 15.3 °F 2.0 °F 5.9 °F 67% 29.55 in 7.0 mi SW 11.5 mph 16.1 mph N/A   Overcast
6:33 AM 15.4 °F 5.6 °F 6.1 °F 67% 29.55 in 10.0 mi SW 6.9 mph 18.4 mph N/A   Overcast
6:53 AM 15.3 °F 2.8 °F 7.5 °F 71% 29.56 in 5.0 mi WSW 10.4 mph 16.1 mph N/A Snow Light Snow
7:13 AM 14.7 °F 5.9 °F 9.1 °F 79% 29.55 in 1.5 mi WSW 5.8 mph 18.4 mph N/A Snow Light Snow
7:33 AM 14.7 °F 3.8 °F 10.0 °F 82% 29.56 in 1.5 mi SW 8.1 mph 17.3 mph N/A Snow Light Snow
7:53 AM 15.1 °F 2.5 °F 10.4 °F 82% 29.56 in 1.2 mi SW 10.4 mph - N/A Snow Light Snow
8:13 AM 15.6 °F 2.5 °F 11.1 °F 82% 29.57 in 1.5 mi WSW 11.5 mph 19.6 mph N/A Snow Light Snow
8:33 AM 15.8 °F 0.9 °F 11.3 °F 82% 29.58 in 0.5 mi WSW 15.0 mph 25.3 mph N/A Snow Light Snow
8:53 AM 16.3 °F 2.1 °F 12.2 °F 84% 29.60 in 0.8 mi West 13.8 mph 19.6 mph N/A Snow Light Snow
9:13 AM 17.1 °F 1.0 °F 8.4 °F 69% 29.60 in 2.5 mi West 18.4 mph 28.8 mph N/A Snow Light Snow
9:33 AM 17.4 °F -0.5 °F 7.0 °F 64% 29.62 in 1.8 mi West 24.2 mph 33.4 mph N/A Snow Light Snow
9:53 AM 14.9 °F -2.7 °F 10.9 °F 84% 29.64 in 0.2 mi West 20.7 mph 24.2 mph N/A Snow Light Snow
10:13 AM 14.4 °F -4.2 °F 9.7 °F 82% 29.66 in 0.2 mi WNW 23.0 mph 34.5 mph N/A Snow Heavy Snow
10:33 AM 14.7 °F -1.1 °F 9.1 °F 79% 29.68 in 0.5 mi West 16.1 mph 26.5 mph N/A Snow Light Snow
10:53 AM 14.4 °F -3.0 °F 5.7 °F 69% 29.70 in 0.8 mi WNW 19.6 mph 31.1 mph N/A Snow Light Snow
11:13 AM 14.4 °F -4.6 °F 3.4 °F 62% 29.72 in 0.8 mi WNW 24.2 mph 36.8 mph N/A   Haze
11:33 AM 14.0 °F -5.1 °F 2.1 °F 59% 29.74 in 1.8 mi West 24.2 mph 34.5 mph N/A   Haze
11:53 AM 13.3 °F 0.3 °F 6.6 °F 75% 29.77 in 0.8 mi NW 10.4 mph 20.7 mph N/A Snow Light Snow
12:13 PM 12.4 °F -2.3 °F 6.1 °F 76% 29.79 in 0.5 mi NW 12.7 mph 24.2 mph N/A Snow Light Snow
12:33 PM 12.2 °F -1.0 °F 6.1 °F 76% 29.80 in 0.5 mi WNW 10.4 mph 25.3 mph N/A Snow Snow
12:53 PM 10.2 °F -7.9 °F 5.5 °F 81% 29.82 in 0.2 mi WNW 18.4 mph 26.5 mph N/A Snow Snow
1:13 PM 10.0 °F -5.2 °F 3.7 °F 76% 29.84 in 0.5 mi NW 12.7 mph 21.9 mph N/A Snow Light Snow
1:34 PM 10.6 °F -1.3 °F 3.9 °F 75% 29.86 in 0.8 mi NW 8.1 mph 18.4 mph N/A Snow Light Snow
1:53 PM 10.6 °F -7.4 °F -0.4 °F 61% 29.87 in 2.5 mi NW 18.4 mph 25.3 mph N/A   Haze
2:13 PM 11.8 °F -3.6 °F 1.2 °F 62% 29.89 in 2.0 mi NW 13.8 mph 20.7 mph N/A   Haze
2:33 PM 10.8 °F -4.3 °F -0.6 °F 60% 29.90 in 2.5 mi WNW 12.7 mph 25.3 mph N/A   Haze
2:53 PM 10.4 °F -4.8 °F -2.7 °F 55% 29.91 in 7.0 mi NW 12.7 mph 19.6 mph N/A   Overcast
3:13 PM 10.2 °F -6.9 °F -4.0 °F 53% 29.94 in 4.0 mi WNW 16.1 mph 31.1 mph N/A   Haze
3:34 PM 10.2 °F -7.4 °F -7.1 °F 46% 29.95 in 7.0 mi West 17.3 mph 26.5 mph N/A   Mostly Cloudy
3:53 PM 10.4 °F -7.7 °F -4.9 °F 50% 29.95 in 5.0 mi WNW 18.4 mph 25.3 mph N/A   Haze
4:13 PM 9.5 °F -7.8 °F -8.0 °F 45% 29.96 in 3.0 mi WNW 16.1 mph 27.6 mph N/A   Haze
4:33 PM 9.7 °F -7.5 °F -10.7 °F 39% 29.97 in 10.0 mi WNW 16.1 mph 21.9 mph N/A   Mostly Cloudy
4:53 PM 10.6 °F -2.2 °F -5.4 °F 49% 29.99 in 10.0 mi NW 9.2 mph 20.7 mph N/A   Mostly Cloudy
5:13 PM 10.4 °F -4.1 °F -8.0 °F 43% 30.00 in 10.0 mi NW 11.5 mph 18.4 mph N/A   Overcast
5:33 PM 9.7 °F -3.3 °F -5.3 °F 51% 30.00 in 10.0 mi NW 9.2 mph - N/A   Overcast
5:53 PM 9.0 °F -0.9 °F -6.9 °F 49% 30.01 in 10.0 mi NW 5.8 mph - N/A   Mostly Cloudy
6:13 PM 8.2 °F -9.4 °F -10.8 °F 42% 30.03 in 10.0 mi West 16.1 mph 20.7 mph N/A   Scattered Clouds
6:33 PM 7.5 °F -5.0 °F -10.7 °F 43% 30.04 in 10.0 mi WNW 8.1 mph - N/A   Clear
6:53 PM 6.8 °F -0.1 °F -8.0 °F 51% 30.05 in 10.0 mi WNW 3.5 mph - N/A   Scattered Clouds
7:13 PM 6.3 °F -2.6 °F -7.4 °F 54% 30.06 in 10.0 mi WNW 4.6 mph - N/A   Scattered Clouds
7:33 PM 5.7 °F -1.3 °F -6.7 °F 57% 30.06 in 10.0 mi WNW 3.5 mph - N/A   Clear
7:53 PM 5.0 °F - -5.8 °F 61% 30.07 in 10.0 mi Calm Calm - N/A   Clear
8:13 PM 4.1 °F - -5.4 °F 65% 30.07 in 10.0 mi Calm Calm - N/A   Clear
8:33 PM 2.7 °F - -5.3 °F 70% 30.08 in 7.0 mi Calm Calm - N/A   Clear
8:53 PM 2.5 °F - -5.4 °F 70% 30.09 in 10.0 mi Calm Calm - N/A   Clear
9:13 PM 1.4 °F - -5.3 °F 74% 30.10 in 10.0 mi Calm Calm - N/A   Clear
9:33 PM 0.5 °F - -6.5 °F 72% 30.10 in 10.0 mi Calm Calm - N/A   Clear
9:53 PM 0.7 °F - -7.2 °F 69% 30.10 in 10.0 mi Calm Calm - N/A   Clear
10:14 PM -2.2 °F - -7.6 °F 78% 30.11 in 10.0 mi Calm Calm - N/A   Clear
10:33 PM -1.3 °F - -6.5 °F 79% 30.12 in 10.0 mi Calm Calm - N/A   Clear
10:53 PM -3.3 °F - -7.6 °F 82% 30.12 in 10.0 mi Calm Calm - N/A   Clear
11:13 PM -1.5 °F - -6.3 °F 80% 30.13 in 10.0 mi Calm Calm - N/A   Clear
11:33 PM -2.2 °F - -7.6 °F 78% 30.13 in 10.0 mi Calm Calm - N/A   Scattered Clouds
11:54 PM -3.8 °F - -9.6 °F 76% 30.13 in 7.0 mi Calm Calm - N/A Snow Light Snow